Weather in Khilok

Russia / Zabaykalsky Krai     51°21′48″N   110°27′32″E
temp.,
°C
wind,
m/s
gust,
m/s
humid.,
%
clouds,
%
prec.,
mm/h
press.,
hPa
HPBL,
m
18 april, sun
sun1800:00+4ssw22440 0.0 100423
03:00+3sw225194 0.0 100315
06:00+2wnw71374100 0.0 1007626
09:00+1wnw71161100 0.0 1014959
12:00+3nw7113116 0.1 10161692
15:00+4nw710170 0.1 10162167
18:00+2nw69160 0.0 10182008
21:00−4nnw23290 0.0 102356
19 april, mon
mon1900:00−7w11370 0.0 102510
03:00−8sse214089 0.0 102511
06:00−8sse11435 0.0 102413
09:00−2se23265 0.0 1021379
12:00+7sw252262 0.0 10151416
15:00+12w371943 0.0 10092622
18:00+13wsw482226 0.0 10072758
21:00+6sw214024 0.0 100810
20 april, tue
tue2000:00+4s3454100 0.0 100857
03:00+2s35635 0.0 100773
06:00+2s347271 0.0 100661
09:00+7wnw264381 0.0 1007555
12:00+10nw3333100 0.0 10061041
15:00+13nw352860 0.0 10051685
18:00+14wnw35270 0.0 10041524
21:00+6wnw11474 0.0 100610
21 april, wed
wed2100:00+4sse22565 0.0 100612
03:00+1nw1167100 0.0 100610
06:000nw237532 0.0 100767
09:00+4nw25542 0.0 1008515
12:00+8nnw34384 0.0 10061109
15:00+12nw44285 0.0 10041604
18:00+11nw5531100 0.0 10051494
21:00+2nw611495 0.0 1012690
22 april, thu
thu2200:00−2nw3868100 0.0 1018652
03:00−4wnw3891100 1.6 1022527
06:00−5wnw3786100 0.6 1025481
09:00−3wnw4557100 0.6 1026687
12:00+2nw3439100 0.0 10251173
15:00+5nnw342981 0.0 10241452
18:00+5n3326100 0.0 10241583
21:00−1w1166100 1.2 103011